Regional Weather Roundup
Issued by NWS Goodland, KS

Home | Current Version | Previous Version | Graphics & Text | Print | Product List | Glossary On
Versions: 1 2 3 4 5 6 7 8 9 10 11 12 13 14 15 16 17 18 19 20 21 22 23 24 25 26 27 28 29 30 31 32 33 34 35 36 37 38 39 40 41 42 43 44 45 46 47 48 49 50
579
ASUS43 KGLD 262159
RWRGLD

GOODLAND FORECAST AREA HOURLY WEATHER ROUNDUP
NATIONAL WEATHER SERVICE GOODLAND KS
400 PM MDT MON JUN 26 2017

...OFFICIAL OBSERVATIONS...

CITY           SKY/WX    TMP DP  RH WIND       PRES   REMARKS
GOODLAND KS    MOSUNNY   82  55  39 CALM      30.11F
HILL CITY KS   MOSUNNY   81  60  48 S3        30.08F
IMPERIAL NEB   MOSUNNY   85  54  34 E12       30.11F
MCCOOK NEB     MOSUNNY   81  60  48 E13       30.11R
AKRON CO       SUNNY     84  51  31 E13G22    30.14F
BURLINGTON CO  MOSUNNY   85  54  34 E7        30.11F
LIMON CO       SUNNY     85  46  25 E14G31    30.15F
$$

...UNOFFICIAL OBSERVATIONS...

CITY           SKY/WX    TMP DP  RH WIND       PRES   REMARKS
LENORA KS        N/A     73  32  22 MISG        N/A
NORTON KS      SUNNY     81  57  44 E7G16     30.09
SHARON SPRINGS   N/A     88  57  34 SW6         N/A
TRENTON NEB      N/A     75  32  20 SE9         N/A
KIT CARSON CO    N/A     85  51  30 MISG        N/A
YUMA CO        FAIR      81  54  39 E10       30.12F
$$




USA.gov is the U.S. government's official web portal to all federal, state and local government web resources and services.